www.pogodaiklimat.ru

Погода и климат >> Архив погоды >> Боливия >> Rurrenabaque


ПОГОДА в Rurrenabaque

  • Прогноз погоды в Rurrenabaque
  • Монитор погоды в Rurrenabaque
  • Климат города

АРХИВ ПОГОДЫ в Rurrenabaque

Время (UTC), дата Ветер
(напр.,м/с)
 
Видим.   Явления Облачность Т
(С)
Тd
(С)
f
(%)
Тe
(С)
Тes
(С)
Комфортность P
(гПа)
Po
(гПа)
Тmin
(С)
Tmax
(С)
R
(мм)
R24
(мм)
S
(см)
12 11.11 штиль 0 5000 м 10/10 120 м
[Frnb]
+24.8 +24.8 100 +35 +35 очень
душно
1010.3 987.4 +24.0
15 11.11 ЮВ 6 20 км в посл. час дождь 9/8 300 м
[Sc Ac trans]
+26.2 +23.2 84 +35 +36 очень
душно
1011.3 988.4
18 11.11 ЮВ 4 6000 м слабый дождь 10/10 300 м
[Sc]
+25.0 +22.6 87 +33 +33 очень
душно
1009.9 987.0 7
21 11.11 ЮВ 5 20 км {дождь} 9/8 360 м
[Sc Ci]
+26.4 +23.3 83 +36 +36 очень
душно
1007.1 984.5 +26.4
12 12.11 штиль 0 20 км 10/10 700 м
[Sc]
+24.6 +23.6 94 +33 +33 очень
душно
1011.9 988.8 +22.0 8
15 12.11 Ю 5 20 км 9/8 600 м
[Sc Ac trans]
+29.0 +23.9 74 +40 +41 очень
душно
1012.4 989.5
18 12.11 ЮЗ 3 20 км 8/4 480 м
[Cu hum Ac trans]
+32.0 +24.7 65 +45 +50 опасность
перегрева
1009.7 986.9
21 12.11 Ю 2 20 км 5/1 500 м
[Cu hum Ci]
+32.6 +22.8 56 +42 +46 опасность
перегрева
1005.9 983.2 +33.0
12 13.11 штиль 0 20 км 9/0
[Ci]
+25.0 +23.7 93 +34 +39 очень
душно
1010.0 987.2 +20.0
15 13.11 ЮВ 4 20 км 9/1 500 м
[Cu hum Ci]
+32.4 +22.6 56 +42 +51 опасность
перегрева
1010.9 988.1
18 13.11 ЮВ 4 20 км 6/1 600 м
[Cu hum Ci]
+34.0 +23.3 54 +45 +55 опасность
перегрева
1008.2 985.4
21 13.11 ЮВ 3 20 км 4/1 600 м
[Cu hum Ci fib]
+34.0 +22.4 51 +43 +46 опасность
перегрева
1003.9 981.2 +35.0
12 14.11 штиль 0 20 км 9/0
[Ci]
+24.0 +21.9 88 +31 +35 очень
душно
1008.6 985.8 +21.0
15 14.11 В 2 20 км 8/0
[Ci]
+32.5 +24.0 61 +44 +60 опасность
перегрева
1008.8 986.0
18 14.11 штиль 0 20 км 8/1 600 м
[Cu hum Ci]
+34.0 +23.9 56 +46 +65 опасность
перегрева
1006.3 983.5
21 14.11 С 3 20 км 6/1 500 м
[Cu hum Ci]
+34.0 +23.9 56 +46 +48 опасность
перегрева
1002.8 980.1 +34.0
12 15.11 штиль 0 20 км 8/0
[Ci]
+26.2 +24.4 90 +37 +41 очень
душно
1008.2 985.5 +22.4
15 15.11 С 2 20 км 8/1 500 м
[Cu hum Ci]
+32.4 +25.7 68 +48 +62 опасность
перегрева
1008.6 985.8
18 15.11 С 5 20 км 8/5 500 м
[Cu med, cong Ci]
+33.0 +25.5 65 +48 +52 опасность
перегрева
1005.8 983.0
21 15.11 С 2 20 км 9/3 500 м
[Cu hum Ac trans Ci]
+33.6 +26.1 65 +50 +51 опасность
перегрева
1002.3 979.9 +34.0
12 16.11 СЗ 2 20 км 9/9 240 м
[Frnb]
+26.4 +24.9 91 +38 +38 очень
душно
1007.8 985.1 +25.4
15 16.11 С 5 20 км 5/5 480 м
[Cu hum]
+32.4 +25.7 68 +48 +52 опасность
перегрева
1007.9 985.2
18 16.11 С 6 20 км 6/6 500 м
[Cb calv]
+34.4 +25.9 61 +50 +53 опасность
перегрева
1005.2 982.5
21 16.11 С 5 20 км 8/1 600 м
[Cu hum Cs]
+32.0 +26.4 72 +48 +50 опасность
перегрева
1002.2 979.5 +34.4
12 17.11 штиль 0 20 км 8/5 400 м
[Sc Ac trans]
+26.8 +24.5 87 +38 +39 очень
душно
1006.0 983.3 +24.0
15 17.11 С 5 20 км 8/8 480 м
[Cb calv]
+31.2 +25.9 73 +46 +48 опасность
перегрева
1007.1 984.3
18 17.11 С 5 8000 м осадки на расстоянии 9/8 480 м
[Cb calv Ci]
+33.0 +26.2 68 +49 +51 опасность
перегрева
1004.0 981.3

 

Местоположение метеостанции Rurrenabaque (Боливия): широта -14.46 долгота -67.56 высота над уровнем моря 204 м.

В архиве по умолчанию представлена погода в Rurrenabaque за последнюю неделю. Архивные данные за месяц целиком и за предыдущие месяцы, начиная с января 2011 года, Вы можете получить, выбрав интересующий диапазон дат из раскрывающегося списка и нажав кнопку "Ввод!".

Внимание! Время в таблицах - всемирное. Для получения местного времени необходимо прибавить поправку, которая в Rurrenabaque равна -4 ч.

Смотрите также архив погоды в соседних городах и на ближайших метеорологических станциях:

Погода в Reyes (Боливия) (26 км)
Погода в Santa Rosa (Боливия) (78 км)
Погода в San Borja (Боливия) (87 км)
Погода в San Ignacio De Moxo (Боливия) (217 км)
Погода в Ovejuyo (Боливия) (235 км)
Погода в La Paz (Боливия) (238 км)
Погода в Santa Ana (Боливия) (243 км)
Погода в Baures (Боливия) (243 км)
Погода в Puerto Maldonado (Перу) (273 км)
Погода в Trinidad (Боливия) (288 км)

Пояснения к столбцам:

Ветер - указаны скорость ветра в м/с - средняя за 10 мин, порывы в срок и между сроками (в фигурных скобках) и направление, откуда дует ветер: С - северный, СВ - северо-восточный, В - восточный, ЮВ - юго-восточный, Ю - южный, ЮЗ - юго-западный, З - западный, СЗ - северо-западный.
Видимость - горизонтальная дальность видимости в метрах или километрах. При видимости от 1 до 10 км при отсутствии осадков обычно наблюдается дымка, при ухудшении видимости до 1 км и менее - туман. В сухую погоду видимость может ухудшаться дымом, пылью или мглою.
Явления - указаны атмосферные явления, наблюдавшиеся в срок или в последний час перед сроком; фигурными скобками обозначены явления, наблюдавшиеся между сроками (за 1-3 часа до срока); квадратными скобками обозначены град или гололедные отложения с указанием их диаметра в мм.
Облачность - указаны через наклонную черту общая и нижняя облачность в баллах и высота нижней границы облаков в метрах; квадратными скобками обозначены формы облаков: Ci - перистые, Cs - перисто-слоистые, Cc - перисто-кучевые, Ac - высококучевые, As - высокослоистые, Sc - слоисто-кучевые, Ns - слоисто-дождевые, Cu - кучевые, Cb - кучево-дождевые. Подробнее классификацию облаков см. в Атласе облаков (PDF).
T - Температура воздуха - температура, измеренная на высоте 2 м над землей.
Td - Температура точки росы - температура, при понижении до которой содержащийся в воздухе водяной пар достигнет насыщения.
f - Относительная влажность воздуха - влажноcть воздуха, измеренная на высоте 2 м над землей.
Te - Эффективная температура - температура, которую ощущает одетый по сезону человек в тени. Характеристика душности погоды. При расчете учитывается влияние влажности воздуха и скорости ветра на теплоощущения человека.
Tes - Эффективная температура на солнце - температура, которую ощущает человек, с поправкой на солнечный нагрев. Характеристика знойности погоды. Зависит от высоты солнца над горизонтом, облачности и скорости ветра. Ночью, в пасмурную погоду, а также при ветре 12 м/с и более поправка равна нулю.
P - Атмосферное давление - приведенное к уровню моря атмосферное давление.
Po - Атмосферное давление - измеренное на уровне метеостанции атмосферное давление.
Tmin - Минимальная температура - минимум температуры воздуха на высоте 2 м над землей.
Tmax - Максимальная температура - максимум температуры воздуха на высоте 2 м над землей.
R - Количество осадков - Количество выпавших осадков за период времени, мм. При наведении курсора мыши на число - период времени, за который выпало указанное количество осадков.
R24 - Количество осадков - Количество выпавших осадков за 24 часа, мм.
S - Снежный покров - Высота снежного покрова, см. При наведении курсора мыши на число - состояние снежного покрова и степень покрытия местности в баллах.